Location: Sandbach
(53.1410°N, 2.3660°W)
Time: 12:21:36
(UTC+01:00)

ISS - Visible Passes

Search period start: 29 September 2022 00:00
Search period end: 09 October 2022 00:00
Orbit: 414 x 417 km, 51.6° (Epoch: 29 September)

Date Brightness Start Highest point End Pass type
(mag) Time Alt. Az. Time Alt. Az. Time Alt. Az.
29 Sep -3.3 19:29:56 10° W 19:33:15 56° SSW 19:36:33 10° ESE visible
29 Sep -1.8 21:06:55 10° W 21:09:33 21° SSW 21:09:34 21° SSW visible
30 Sep -2.2 20:17:59 10° W 20:20:56 28° SSW 20:22:45 18° SSE visible
01 Oct -2.6 19:29:07 10° W 19:32:15 37° SSW 19:35:24 10° SE visible
01 Oct -1.0 21:07:13 10° WSW 21:08:17 11° SW 21:08:51 11° SSW visible
02 Oct -1.2 20:17:32 10° WSW 20:19:42 16° SW 20:21:52 10° S visible
03 Oct -1.6 19:28:21 10° W 19:31:03 22° SSW 19:33:44 10° SSE visible
05 Oct -0.8 19:28:11 10° WSW 19:29:35 12° SW 19:30:59 10° SSW visible
